Location: Baumgartsau
(48.4586°N, 14.0864°E)
Time: 05:58:20
(UTC+00:00)

STARLINK-1138 - Pass Details

Date: 09 April 2020
Orbit: 549 x 551 km, 53.0° (Epoch: 29 May)

Event Time Altitude Azimuth Distance (km) Brightness Sun altitude
Rises 19:57:56 0° 295° (WNW) 2,727 8.6 -20.2°
Reaches altitude 10° 20:00:11 10° 292° (WNW) 1,831 7.3 -20.5°
Maximum altitude 20:04:16 58° 213° (SSW) 644 3.8 -21.0°
Enters shadow 20:04:39 56° 187° (S) 662 3.7 -21.1°
